GFSGBSN_prec_precacc_255.txt.gz
Total_Precipitation_Accumulation
0.23 0.16 0.13 0.12 0.10 0.08 0.08 0.08 0.08 0.06 0.06 0.06 0.06 0.05 0.05 0.05 0.04 0.03 0.02 0.01 0.01 0.02 0.02 0.02 0.02 0.02 0.01 0.00 0.00 0.00 0.00 0.00 0.00 0.00 0.00 0.00 0.00 0.00 0.00 0.00 0.00 0.00 0.00 0.00 0.00 0.02 0.02
0.63 0.52 0.48 0.43 0.38 0.35 0.32 0.27 0.21 0.13 0.09 0.07 0.07 0.07 0.07 0.07 0.05 0.04 0.03 0.01 0.02 0.01 0.02 0.02 0.02 0.04 0.00 0.00 0.00 0.00 0.00 0.00 0.00 0.00 0.00 0.00 0.00 0.00 0.00 0.00 0.00 0.00 0.00 0.00 0.02 0.01 0.02
0.66 0.59 0.52 0.46 0.42 0.35 0.27 0.21 0.17 0.15 0.11 0.08 0.09 0.06 0.05 0.05 0.04 0.03 0.03 0.01 0.02 0.02 0.02 0.02 0.03 0.03 0.00 0.00 0.00 0.00 0.00 0.00 0.00 0.00 0.00 0.00 0.00 0.00 0.00 0.00 0.00 0.00 0.01 0.01 0.04 0.02 0.01
1.05 0.68 0.48 0.39 0.33 0.31 0.28 0.22 0.19 0.16 0.12 0.09 0.07 0.07 0.06 0.05 0.04 0.03 0.02 0.01 0.01 0.01 0.02 0.02 0.03 0.02 0.00 0.00 0.00 0.00 0.00 0.00 0.00 0.00 0.00 0.00 0.00 0.00 0.00 0.00 0.00 0.00 0.00 0.02 0.16 0.03 0.01
1.48 1.26 0.80 0.49 0.36 0.31 0.27 0.23 0.17 0.12 0.10 0.09 0.07 0.05 0.04 0.03 0.03 0.04 0.03 0.02 0.01 0.01 0.02 0.02 0.03 0.02 0.00 0.00 0.00 0.00 0.00 0.00 0.00 0.00 0.00 0.00 0.00 0.00 0.00 0.00 0.00 0.00 0.00 0.00 0.01 0.01 0.01
0.98 1.10 1.12 0.84 0.55 0.38 0.29 0.23 0.18 0.13 0.11 0.10 0.07 0.05 0.05 0.06 0.06 0.05 0.03 0.01 0.01 0.01 0.01 0.00 0.02 0.01 0.00 0.00 0.00 0.00 0.00 0.01 0.03 0.00 0.00 0.00 0.00 0.00 0.00 0.00 0.00 0.00 0.00 0.00 0.02 0.01 0.00
0.75 0.83 0.84 0.83 0.77 0.63 0.48 0.40 0.31 0.26 0.20 0.14 0.09 0.05 0.03 0.02 0.04 0.05 0.01 0.01 0.00 0.00 0.00 0.00 0.01 0.00 0.00 0.00 0.00 0.00 0.00 0.01 0.01 0.00 0.01 0.02 0.00 0.01 0.00 0.00 0.00 0.00 0.00 0.00 0.00 0.01 0.00
0.61 0.68 0.68 0.60 0.58 0.54 0.56 0.48 0.38 0.33 0.26 0.21 0.15 0.10 0.05 0.05 0.07 0.06 0.01 0.00 0.01 0.05 0.07 0.00 0.00 0.00 0.00 0.00 0.00 0.00 0.00 0.00 0.00 0.01 0.03 0.04 0.03 0.01 0.01 0.00 0.00 0.00 0.01 0.00 0.00 0.00 0.00
0.83 0.72 0.72 0.72 0.59 0.48 0.45 0.47 0.42 0.33 0.30 0.26 0.18 0.13 0.09 0.10 0.10 0.04 0.00 0.00 0.00 0.01 0.06 0.00 0.00 0.00 0.00 0.00 0.00 0.00 0.00 0.00 0.01 0.03 0.03 0.05 0.02 0.00 0.00 0.00 0.01 0.00 0.00 0.00 0.00 0.00 0.01
1.07 0.85 0.73 0.71 0.72 0.65 0.53 0.44 0.35 0.29 0.25 0.23 0.23 0.24 0.23 0.17 0.10 0.00 0.00 0.00 0.00 0.03 0.20 0.04 0.00 0.00 0.00 0.01 0.01 0.00 0.00 0.05 0.07 0.06 0.05 0.06 0.00 0.01 0.04 0.04 0.01 0.00 0.00 0.01 0.01 0.03 0.08
1.27 1.11 0.96 0.80 0.76 0.69 0.62 0.51 0.36 0.26 0.24 0.22 0.21 0.23 0.31 0.30 0.09 0.05 0.04 0.01 0.01 0.16 0.48 0.05 0.00 0.01 0.00 0.02 0.04 0.02 0.00 0.01 0.04 0.04 0.10 0.12 0.01 0.07 0.08 0.03 0.02 0.01 0.01 0.05 0.05 0.06 0.05
1.50 1.35 1.23 1.04 0.83 0.65 0.58 0.55 0.49 0.35 0.28 0.31 0.30 0.30 0.42 0.31 0.21 0.10 0.04 0.05 0.25 0.62 0.47 0.04 0.01 0.01 0.01 0.00 0.00 0.00 0.00 0.02 0.02 0.03 0.03 0.02 0.02 0.05 0.04 0.01 0.04 0.08 0.05 0.11 0.10 0.13 0.15
1.77 1.58 1.43 1.25 1.08 0.83 0.67 0.58 0.54 0.46 0.39 0.40 0.38 0.37 0.45 0.17 0.15 0.14 0.15 0.38 0.86 0.71 0.07 0.03 0.03 0.00 0.01 0.03 0.02 0.02 0.05 0.03 0.04 0.07 0.10 0.08 0.09 0.01 0.01 0.01 0.04 0.11 0.25 0.48 0.52 0.33 0.12
2.44 1.97 1.68 1.43 1.22 1.09 0.88 0.78 0.65 0.66 0.62 0.64 0.64 0.65 0.42 0.16 0.11 0.19 0.38 1.02 0.92 0.12 0.02 0.01 0.00 0.01 0.10 0.20 0.16 0.08 0.08 0.02 0.01 0.02 0.08 0.18 0.21 0.10 0.00 0.01 0.05 0.11 0.31 0.43 0.60 0.27 0.13
3.26 2.56 1.95 1.57 1.38 1.19 1.22 1.01 0.90 0.77 0.75 0.94 1.39 1.04 0.73 0.24 0.23 0.48 1.24 1.80 0.42 0.07 0.11 0.07 0.05 0.11 0.28 0.11 0.35 0.26 0.05 0.02 0.06 0.09 0.27 0.29 0.22 0.07 0.02 0.06 0.18 0.20 0.19 0.15 0.70 0.43 0.43
4.10 4.00 3.01 2.42 1.84 1.57 1.42 1.43 1.30 1.13 1.11 1.50 1.75 1.58 0.89 0.38 0.80 1.84 2.51 1.27 0.16 0.07 0.11 0.22 0.45 0.24 0.36 0.12 0.39 0.18 0.14 0.09 0.06 0.04 0.11 0.31 0.62 0.20 0.06 0.08 0.09 0.16 0.27 0.48 0.94 1.10 0.84
4.12 3.96 4.22 3.49 2.84 2.14 1.95 1.87 1.91 1.85 2.02 2.78 3.37 3.54 1.42 0.67 2.31 4.14 2.79 0.46 0.02 0.03 0.21 0.54 0.48 0.46 0.54 0.43 0.49 0.24 0.31 0.23 0.12 0.07 0.11 0.40 0.91 0.54 0.23 0.20 0.20 0.28 0.42 0.47 0.69 0.76 1.52
3.70 3.91 3.71 3.65 3.46 2.97 2.57 2.36 2.54 3.09 3.97 5.04 5.26 4.19 2.27 1.56 3.47 3.13 1.16 0.15 0.15 0.17 0.27 0.48 0.48 0.60 0.85 0.61 0.69 0.77 0.47 0.51 0.18 0.07 0.13 0.22 1.02 0.81 0.32 0.16 0.21 0.30 0.31 0.49 1.69 1.25 1.33
3.13 3.03 3.44 3.71 3.53 3.56 3.20 2.88 2.88 3.34 3.92 4.87 6.06 4.16 4.09 2.82 2.52 1.54 0.62 0.37 0.33 0.28 0.24 0.44 0.48 0.76 0.85 1.01 1.32 1.30 0.70 0.28 0.12 0.08 0.25 0.38 1.05 0.79 0.69 0.74 0.39 0.30 0.31 0.50 0.84 1.53 2.11
3.50 3.34 3.05 3.30 3.95 4.12 3.94 4.16 4.26 4.41 4.83 5.45 6.49 5.55 6.68 5.89 2.01 0.68 0.72 0.72 0.49 0.24 0.28 0.36 0.59 0.83 0.90 1.08 1.09 1.34 0.70 0.22 0.09 0.10 0.18 0.55 0.73 0.75 1.04 1.05 0.96 0.72 0.49 0.57 1.27 2.37 1.77
3.08 3.23 3.33 3.36 3.59 4.28 4.70 5.16 5.33 5.27 5.70 8.03 8.39 4.59 2.83 3.73 2.06 0.94 0.93 1.12 0.62 0.48 0.55 0.68 1.08 0.65 0.77 1.54 1.06 0.80 0.67 0.38 0.21 0.20 0.23 0.54 0.99 0.93 0.70 0.79 0.72 1.19 1.17 1.18 1.09 0.99 1.63
2.92 2.88 3.08 3.24 3.41 3.66 4.05 4.99 5.52 5.25 5.98 10.50 8.62 3.34 1.76 1.24 0.98 1.58 1.80 1.26 0.58 0.58 0.99 1.05 0.59 0.31 0.54 0.85 0.79 0.79 0.81 0.85 0.78 0.35 0.37 0.53 0.83 0.95 1.53 0.90 0.44 0.96 1.10 0.92 0.63 0.73 0.81
2.97 2.76 2.82 3.07 3.12 3.09 3.29 3.89 5.16 6.41 7.81 10.92 6.60 2.42 2.23 2.23 1.44 1.85 1.73 0.85 0.74 0.83 1.17 0.68 0.47 0.78 0.67 0.38 0.56 0.77 0.62 0.48 0.53 0.47 0.52 0.70 0.83 0.98 1.14 0.56 0.50 0.95 0.87 0.51 0.32 0.27 0.36
2.61 2.45 2.34 2.48 2.74 3.01 3.21 3.48 4.02 5.67 8.12 7.00 4.09 2.48 3.59 3.02 1.45 0.89 0.64 0.63 0.77 0.73 1.06 0.62 0.46 0.78 0.50 0.33 0.58 0.66 0.41 0.24 0.31 0.28 0.40 0.65 0.73 1.40 1.28 0.78 1.53 1.02 0.40 0.32 0.33 0.33 0.28
2.58 2.42 2.27 2.23 2.24 2.59 2.82 2.84 3.13 3.98 5.72 6.16 3.92 2.90 3.24 2.56 1.11 0.67 0.56 0.64 0.79 0.97 1.03 0.93 0.60 0.57 0.74 0.98 1.30 1.08 0.60 0.42 0.23 0.35 0.43 0.44 0.89 1.79 1.55 1.04 0.67 0.27 0.16 0.25 0.34 0.33 0.36
2.33 2.14 2.02 2.20 2.11 2.18 2.51 2.56 2.42 2.65 4.02 6.07 4.60 3.14 3.39 3.07 1.48 0.55 0.71 0.74 0.94 1.10 1.13 0.87 0.65 0.67 0.99 1.66 1.76 1.44 0.75 0.45 0.37 0.29 0.47 0.72 0.99 1.98 1.74 1.68 0.77 0.22 0.15 0.08 0.15 0.47 0.43
2.10 2.06 2.06 1.98 2.13 2.13 2.18 2.24 2.35 2.27 3.26 5.13 4.93 3.51 4.83 4.56 1.79 0.76 0.93 1.00 0.90 1.14 1.42 0.94 0.91 1.02 1.27 1.81 1.88 0.93 0.58 0.45 0.61 0.44 0.34 0.65 1.31 2.04 1.77 2.44 0.86 0.16 0.19 0.24 0.87 1.10 0.72
1.70 1.79 1.92 1.88 1.93 1.93 1.94 1.90 2.12 2.53 3.43 5.02 4.49 3.34 4.39 4.38 2.13 1.04 0.85 0.93 0.90 1.22 1.75 1.42 1.77 1.62 1.95 2.10 1.59 1.13 0.71 0.44 0.42 0.30 0.39 0.58 1.16 1.26 1.49 2.23 1.23 0.36 0.54 0.98 1.07 0.79 0.56
1.63 1.61 1.62 1.72 1.79 1.77 1.79 1.91 2.04 2.63 3.69 5.08 4.85 3.25 3.85 4.79 3.19 1.38 0.82 0.74 0.65 0.77 1.44 1.88 1.56 1.26 1.33 1.62 1.51 1.25 1.00 0.72 0.53 0.85 0.46 0.88 0.78 1.00 1.07 0.89 0.70 0.63 0.91 0.78 0.74 0.81 0.46

GFSGBSN_prec_precacc_261.txt.gz
Total_Precipitation_Accumulation
0.23 0.16 0.13 0.12 0.10 0.08 0.08 0.08 0.08 0.06 0.06 0.06 0.06 0.05 0.05 0.05 0.04 0.03 0.02 0.01 0.01 0.02 0.02 0.02 0.02 0.02 0.01 0.00 0.00 0.00 0.00 0.00 0.00 0.00 0.00 0.00 0.00 0.00 0.00 0.00 0.00 0.00 0.00 0.00 0.00 0.02 0.02
0.63 0.52 0.48 0.43 0.38 0.35 0.32 0.27 0.21 0.13 0.09 0.07 0.07 0.07 0.07 0.07 0.05 0.04 0.03 0.01 0.02 0.01 0.02 0.02 0.02 0.04 0.00 0.00 0.00 0.00 0.00 0.00 0.00 0.00 0.00 0.00 0.00 0.00 0.00 0.00 0.00 0.00 0.00 0.00 0.02 0.01 0.02
0.66 0.60 0.52 0.46 0.42 0.35 0.27 0.21 0.17 0.15 0.11 0.08 0.09 0.06 0.05 0.05 0.04 0.03 0.03 0.01 0.02 0.02 0.02 0.02 0.03 0.03 0.00 0.00 0.00 0.00 0.00 0.00 0.00 0.00 0.00 0.00 0.00 0.00 0.00 0.00 0.00 0.00 0.01 0.01 0.04 0.02 0.01
1.05 0.68 0.48 0.39 0.33 0.31 0.28 0.22 0.19 0.16 0.12 0.09 0.07 0.07 0.06 0.05 0.04 0.03 0.02 0.01 0.01 0.01 0.02 0.02 0.03 0.02 0.00 0.00 0.00 0.00 0.00 0.00 0.00 0.00 0.00 0.00 0.00 0.00 0.00 0.00 0.00 0.00 0.00 0.02 0.16 0.03 0.01
1.49 1.26 0.80 0.49 0.36 0.31 0.27 0.23 0.17 0.12 0.10 0.09 0.07 0.05 0.04 0.03 0.03 0.04 0.03 0.02 0.01 0.01 0.02 0.02 0.03 0.02 0.00 0.00 0.00 0.00 0.00 0.00 0.00 0.00 0.00 0.00 0.00 0.00 0.00 0.00 0.00 0.00 0.00 0.00 0.01 0.01 0.01
1.07 1.11 1.13 0.84 0.55 0.38 0.29 0.23 0.18 0.13 0.11 0.10 0.07 0.05 0.05 0.06 0.06 0.05 0.03 0.01 0.01 0.01 0.01 0.00 0.02 0.01 0.00 0.00 0.00 0.00 0.00 0.01 0.03 0.00 0.00 0.00 0.00 0.00 0.00 0.00 0.00 0.00 0.00 0.00 0.02 0.01 0.00
0.86 0.88 0.85 0.83 0.77 0.63 0.48 0.40 0.31 0.26 0.20 0.14 0.09 0.05 0.03 0.02 0.04 0.05 0.01 0.01 0.00 0.00 0.00 0.00 0.01 0.00 0.00 0.00 0.00 0.00 0.00 0.01 0.01 0.00 0.01 0.02 0.00 0.01 0.00 0.00 0.00 0.00 0.00 0.00 0.00 0.01 0.00
0.79 0.74 0.71 0.62 0.58 0.54 0.56 0.48 0.38 0.33 0.26 0.21 0.15 0.10 0.05 0.05 0.07 0.06 0.01 0.00 0.01 0.05 0.07 0.00 0.00 0.00 0.00 0.00 0.00 0.00 0.00 0.00 0.00 0.01 0.03 0.04 0.03 0.01 0.01 0.00 0.00 0.00 0.01 0.00 0.00 0.00 0.00
1.05 0.87 0.78 0.76 0.61 0.49 0.45 0.47 0.42 0.33 0.30 0.26 0.18 0.13 0.09 0.10 0.10 0.04 0.00 0.00 0.00 0.01 0.06 0.00 0.00 0.00 0.00 0.00 0.00 0.00 0.00 0.00 0.01 0.03 0.03 0.05 0.02 0.00 0.00 0.00 0.01 0.00 0.00 0.00 0.00 0.00 0.01
1.12 1.04 0.85 0.77 0.76 0.67 0.54 0.44 0.36 0.30 0.26 0.23 0.23 0.24 0.23 0.17 0.10 0.00 0.00 0.00 0.00 0.03 0.20 0.04 0.00 0.00 0.00 0.01 0.01 0.00 0.00 0.05 0.07 0.06 0.05 0.06 0.00 0.01 0.04 0.04 0.01 0.00 0.00 0.01 0.01 0.03 0.08
1.28 1.17 1.08 0.89 0.83 0.77 0.65 0.53 0.37 0.27 0.25 0.23 0.22 0.24 0.31 0.30 0.10 0.05 0.04 0.01 0.01 0.16 0.48 0.05 0.00 0.01 0.00 0.02 0.04 0.02 0.00 0.01 0.04 0.04 0.10 0.12 0.01 0.07 0.08 0.03 0.02 0.01 0.01 0.05 0.05 0.06 0.05
1.50 1.36 1.27 1.11 0.90 0.76 0.70 0.60 0.53 0.36 0.29 0.32 0.33 0.31 0.43 0.31 0.21 0.10 0.04 0.05 0.25 0.62 0.47 0.04 0.01 0.01 0.01 0.00 0.00 0.00 0.00 0.02 0.02 0.03 0.03 0.02 0.02 0.05 0.04 0.01 0.04 0.08 0.05 0.11 0.10 0.13 0.15
1.78 1.59 1.44 1.29 1.15 0.93 0.82 0.75 0.61 0.50 0.42 0.43 0.41 0.39 0.45 0.17 0.15 0.14 0.15 0.38 0.86 0.71 0.07 0.03 0.03 0.00 0.01 0.03 0.02 0.02 0.05 0.03 0.04 0.07 0.10 0.08 0.09 0.01 0.01 0.01 0.04 0.11 0.25 0.48 0.52 0.33 0.12
2.44 1.98 1.69 1.43 1.27 1.16 1.01 0.97 0.80 0.75 0.68 0.69 0.70 0.68 0.42 0.16 0.11 0.19 0.38 1.02 0.93 0.13 0.02 0.01 0.00 0.01 0.10 0.20 0.16 0.08 0.08 0.02 0.01 0.02 0.08 0.18 0.21 0.10 0.00 0.01 0.05 0.11 0.31 0.43 0.60 0.28 0.14
3.27 2.56 1.96 1.58 1.39 1.24 1.30 1.16 1.12 0.94 0.89 1.01 1.44 1.10 0.74 0.24 0.23 0.48 1.24 1.81 0.43 0.07 0.11 0.07 0.05 0.11 0.28 0.11 0.35 0.26 0.05 0.02 0.06 0.09 0.27 0.29 0.22 0.07 0.02 0.06 0.18 0.20 0.19 0.15 0.70 0.43 0.43
4.11 4.01 3.02 2.43 1.85 1.59 1.48 1.52 1.43 1.41 1.29 1.64 1.81 1.63 0.94 0.39 0.80 1.84 2.51 1.28 0.16 0.07 0.11 0.22 0.45 0.24 0.36 0.12 0.39 0.18 0.14 0.09 0.06 0.04 0.11 0.31 0.62 0.20 0.06 0.08 0.09 0.16 0.27 0.48 0.94 1.10 0.84
4.13 3.98 4.23 3.51 2.85 2.15 1.98 1.95 2.02 2.00 2.26 2.90 3.48 3.64 1.46 0.68 2.31 4.14 2.79 0.47 0.02 0.03 0.21 0.54 0.48 0.46 0.54 0.43 0.49 0.24 0.31 0.23 0.12 0.07 0.11 0.40 0.91 0.54 0.23 0.20 0.20 0.28 0.42 0.47 0.69 0.76 1.52
3.71 3.93 3.73 3.66 3.47 2.98 2.60 2.42 2.64 3.18 4.12 5.16 5.33 4.29 2.31 1.56 3.48 3.14 1.17 0.16 0.15 0.17 0.27 0.48 0.48 0.60 0.85 0.61 0.69 0.77 0.47 0.51 0.18 0.07 0.13 0.22 1.02 0.81 0.32 0.16 0.21 0.30 0.31 0.49 1.69 1.25 1.33
3.17 3.04 3.45 3.72 3.54 3.58 3.22 2.91 2.96 3.41 3.98 4.93 6.09 4.21 4.18 2.85 2.53 1.56 0.62 0.37 0.33 0.28 0.24 0.44 0.48 0.76 0.85 1.01 1.32 1.30 0.70 0.28 0.12 0.08 0.25 0.38 1.05 0.79 0.69 0.75 0.40 0.30 0.31 0.50 0.84 1.53 2.11
3.60 3.35 3.06 3.32 3.96 4.13 3.95 4.18 4.29 4.46 4.85 5.47 6.52 5.57 6.74 5.97 2.01 0.69 0.73 0.72 0.49 0.24 0.28 0.36 0.59 0.83 0.90 1.08 1.09 1.34 0.70 0.22 0.09 0.10 0.18 0.55 0.73 0.75 1.04 1.05 0.96 0.72 0.49 0.57 1.27 2.37 1.77
3.20 3.26 3.34 3.37 3.61 4.29 4.71 5.16 5.33 5.27 5.70 8.04 8.40 4.59 2.84 3.77 2.10 0.95 0.93 1.12 0.62 0.48 0.55 0.68 1.08 0.65 0.77 1.54 1.06 0.80 0.67 0.38 0.21 0.20 0.23 0.54 0.99 0.93 0.70 0.79 0.72 1.19 1.17 1.18 1.09 0.99 1.63
3.05 2.95 3.10 3.25 3.42 3.67 4.05 4.99 5.52 5.25 5.98 10.50 8.62 3.34 1.76 1.24 0.99 1.59 1.81 1.26 0.58 0.58 0.99 1.05 0.59 0.31 0.54 0.85 0.79 0.79 0.81 0.85 0.78 0.35 0.37 0.53 0.83 0.95 1.53 0.90 0.44 0.96 1.10 0.92 0.63 0.73 0.81
3.09 2.87 2.86 3.09 3.13 3.11 3.29 3.89 5.16 6.41 7.81 10.92 6.60 2.42 2.23 2.23 1.44 1.87 1.73 0.85 0.74 0.83 1.17 0.68 0.47 0.78 0.67 0.38 0.56 0.77 0.62 0.48 0.53 0.47 0.52 0.70 0.83 0.98 1.14 0.56 0.50 0.95 0.87 0.51 0.32 0.27 0.36
2.75 2.58 2.42 2.51 2.76 3.02 3.21 3.48 4.02 5.67 8.12 7.00 4.09 2.48 3.59 3.02 1.45 0.89 0.64 0.63 0.77 0.73 1.06 0.62 0.46 0.78 0.50 0.33 0.58 0.66 0.41 0.24 0.31 0.28 0.40 0.65 0.73 1.40 1.28 0.78 1.53 1.02 0.40 0.32 0.33 0.33 0.28
2.80 2.59 2.38 2.29 2.28 2.62 2.82 2.84 3.13 3.98 5.72 6.16 3.92 2.90 3.24 2.56 1.11 0.67 0.56 0.64 0.79 0.97 1.03 0.93 0.60 0.57 0.74 0.98 1.30 1.09 0.60 0.42 0.23 0.35 0.43 0.44 0.89 1.79 1.55 1.04 0.67 0.27 0.16 0.25 0.34 0.33 0.36
2.58 2.39 2.18 2.28 2.15 2.22 2.54 2.58 2.42 2.65 4.02 6.07 4.60 3.14 3.39 3.07 1.48 0.55 0.71 0.74 0.94 1.10 1.13 0.87 0.65 0.67 0.99 1.66 1.76 1.44 0.76 0.45 0.37 0.29 0.47 0.72 0.99 1.98 1.74 1.68 0.77 0.22 0.15 0.08 0.15 0.47 0.43
2.42 2.42 2.32 2.12 2.19 2.18 2.24 2.26 2.35 2.27 3.26 5.13 4.93 3.51 4.83 4.56 1.79 0.76 0.93 1.00 0.90 1.14 1.42 0.94 0.91 1.02 1.27 1.82 1.89 0.94 0.58 0.45 0.61 0.44 0.34 0.65 1.31 2.04 1.77 2.44 0.86 0.16 0.19 0.24 0.87 1.10 0.72
2.17 2.18 2.35 2.13 2.04 2.02 2.01 1.92 2.14 2.54 3.43 5.02 4.49 3.34 4.40 4.38 2.13 1.04 0.85 0.93 0.90 1.22 1.75 1.43 1.80 1.63 1.97 2.13 1.63 1.16 0.71 0.44 0.42 0.30 0.39 0.58 1.16 1.26 1.50 2.24 1.23 0.36 0.54 0.98 1.07 0.79 0.56
2.15 2.00 2.06 2.15 2.03 1.90 1.88 1.96 2.09 2.66 3.69 5.08 4.85 3.25 3.85 4.79 3.19 1.38 0.82 0.74 0.65 0.77 1.44 1.88 1.57 1.26 1.33 1.64 1.53 1.25 1.01 0.72 0.53 0.85 0.46 0.88 0.78 1.00 1.07 0.89 0.70 0.63 0.91 0.78 0.74 0.81 0.46

GFSGBSN_prec_precacc_267.txt.gz
Total_Precipitation_Accumulation
0.23 0.17 0.14 0.12 0.10 0.08 0.08 0.08 0.08 0.06 0.06 0.06 0.06 0.05 0.05 0.05 0.04 0.03 0.02 0.01 0.01 0.02 0.02 0.02 0.02 0.02 0.01 0.00 0.00 0.00 0.00 0.00 0.00 0.00 0.00 0.00 0.00 0.00 0.00 0.00 0.00 0.00 0.00 0.00 0.00 0.02 0.02
0.63 0.52 0.48 0.43 0.38 0.35 0.32 0.27 0.21 0.13 0.09 0.07 0.07 0.07 0.07 0.07 0.05 0.04 0.03 0.01 0.02 0.01 0.02 0.02 0.02 0.04 0.00 0.00 0.00 0.00 0.00 0.00 0.00 0.00 0.00 0.00 0.00 0.00 0.00 0.00 0.00 0.00 0.00 0.00 0.02 0.01 0.02
0.66 0.60 0.52 0.46 0.42 0.35 0.27 0.21 0.17 0.15 0.11 0.08 0.09 0.06 0.05 0.05 0.04 0.03 0.03 0.01 0.02 0.02 0.02 0.02 0.03 0.03 0.00 0.00 0.00 0.00 0.00 0.00 0.00 0.00 0.00 0.00 0.00 0.00 0.00 0.00 0.00 0.00 0.01 0.01 0.04 0.02 0.01
1.05 0.68 0.48 0.39 0.33 0.31 0.28 0.22 0.19 0.16 0.12 0.09 0.07 0.07 0.06 0.05 0.04 0.03 0.02 0.01 0.01 0.01 0.02 0.02 0.03 0.02 0.00 0.00 0.00 0.00 0.00 0.00 0.00 0.00 0.00 0.00 0.00 0.00 0.00 0.00 0.00 0.00 0.00 0.02 0.16 0.03 0.01
1.56 1.26 0.80 0.49 0.36 0.31 0.27 0.23 0.17 0.12 0.10 0.09 0.07 0.05 0.04 0.03 0.03 0.04 0.03 0.02 0.01 0.01 0.02 0.02 0.03 0.02 0.00 0.00 0.00 0.00 0.00 0.00 0.00 0.00 0.00 0.00 0.00 0.00 0.00 0.00 0.00 0.00 0.00 0.00 0.01 0.01 0.01
1.25 1.19 1.13 0.84 0.55 0.38 0.30 0.24 0.18 0.13 0.11 0.10 0.07 0.05 0.05 0.06 0.06 0.05 0.03 0.01 0.01 0.01 0.01 0.00 0.02 0.01 0.00 0.00 0.00 0.00 0.00 0.01 0.03 0.00 0.00 0.00 0.00 0.00 0.00 0.00 0.00 0.00 0.00 0.00 0.02 0.01 0.00
0.98 1.00 0.89 0.83 0.77 0.63 0.48 0.40 0.32 0.26 0.20 0.14 0.09 0.05 0.03 0.02 0.04 0.05 0.01 0.01 0.00 0.00 0.00 0.00 0.01 0.00 0.00 0.00 0.00 0.00 0.00 0.01 0.01 0.00 0.01 0.02 0.00 0.01 0.00 0.00 0.00 0.00 0.00 0.00 0.00 0.01 0.00
0.85 0.87 0.80 0.63 0.59 0.55 0.56 0.49 0.38 0.33 0.26 0.21 0.15 0.10 0.05 0.05 0.07 0.06 0.01 0.00 0.01 0.05 0.07 0.00 0.00 0.00 0.00 0.00 0.00 0.00 0.00 0.00 0.00 0.01 0.03 0.04 0.03 0.01 0.01 0.00 0.00 0.00 0.01 0.00 0.00 0.00 0.00
1.06 0.97 0.90 0.85 0.64 0.50 0.46 0.47 0.42 0.33 0.30 0.26 0.18 0.13 0.09 0.10 0.10 0.04 0.00 0.00 0.00 0.01 0.06 0.00 0.00 0.00 0.00 0.00 0.00 0.00 0.00 0.00 0.01 0.03 0.03 0.05 0.02 0.00 0.00 0.00 0.01 0.00 0.00 0.00 0.00 0.00 0.01
1.14 1.09 0.99 0.95 0.89 0.72 0.55 0.45 0.36 0.30 0.26 0.23 0.23 0.24 0.23 0.17 0.10 0.00 0.00 0.00 0.00 0.03 0.20 0.04 0.00 0.00 0.00 0.01 0.01 0.00 0.00 0.05 0.07 0.06 0.05 0.06 0.00 0.01 0.04 0.04 0.01 0.00 0.00 0.01 0.01 0.03 0.08
1.30 1.19 1.19 1.05 1.05 0.95 0.71 0.55 0.38 0.27 0.25 0.23 0.22 0.24 0.31 0.30 0.10 0.05 0.04 0.01 0.01 0.16 0.48 0.05 0.00 0.01 0.00 0.02 0.04 0.02 0.00 0.01 0.04 0.04 0.10 0.12 0.01 0.07 0.08 0.03 0.02 0.01 0.01 0.05 0.05 0.06 0.05
1.53 1.36 1.31 1.27 1.05 0.95 0.89 0.70 0.59 0.39 0.30 0.33 0.33 0.34 0.46 0.32 0.22 0.13 0.07 0.06 0.25 0.62 0.47 0.04 0.01 0.01 0.01 0.00 0.00 0.00 0.00 0.02 0.02 0.03 0.03 0.02 0.02 0.05 0.04 0.01 0.04 0.08 0.05 0.11 0.10 0.13 0.15
1.81 1.60 1.44 1.34 1.30 1.06 0.98 0.95 0.74 0.60 0.47 0.44 0.43 0.44 0.52 0.18 0.16 0.15 0.19 0.41 0.86 0.71 0.07 0.03 0.03 0.00 0.01 0.03 0.02 0.02 0.05 0.03 0.04 0.07 0.10 0.08 0.09 0.01 0.01 0.01 0.04 0.11 0.25 0.48 0.52 0.33 0.12
2.47 1.99 1.69 1.45 1.35 1.30 1.16 1.13 1.05 0.92 0.77 0.71 0.72 0.75 0.50 0.20 0.12 0.20 0.43 1.11 0.94 0.13 0.02 0.01 0.00 0.01 0.10 0.20 0.16 0.08 0.08 0.02 0.01 0.02 0.08 0.18 0.21 0.10 0.00 0.01 0.05 0.11 0.31 0.43 0.60 0.28 0.14
3.30 2.58 1.97 1.58 1.43 1.35 1.45 1.33 1.31 1.22 1.05 1.14 1.54 1.18 0.87 0.27 0.26 0.50 1.25 1.86 0.43 0.07 0.11 0.07 0.05 0.11 0.28 0.11 0.35 0.26 0.05 0.02 0.06 0.09 0.27 0.29 0.22 0.07 0.02 0.06 0.18 0.20 0.19 0.15 0.70 0.43 0.43
4.20 4.05 3.03 2.44 1.87 1.67 1.63 1.71 1.65 1.65 1.56 1.93 2.03 1.75 1.03 0.47 0.88 1.85 2.51 1.28 0.16 0.07 0.11 0.22 0.45 0.24 0.36 0.12 0.39 0.18 0.14 0.09 0.06 0.04 0.11 0.31 0.62 0.20 0.06 0.08 0.09 0.16 0.27 0.48 0.94 1.10 0.84
4.25 4.06 4.28 3.51 2.86 2.18 2.10 2.14 2.26 2.22 2.53 3.22 3.87 4.04 1.56 0.90 2.48 4.17 2.80 0.47 0.02 0.03 0.21 0.54 0.48 0.46 0.54 0.43 0.49 0.24 0.31 0.23 0.12 0.07 0.11 0.40 0.91 0.54 0.23 0.20 0.20 0.28 0.42 0.47 0.69 0.76 1.52
3.89 4.03 3.81 3.71 3.47 3.00 2.65 2.60 2.91 3.44 4.47 5.76 5.83 4.84 2.51 1.76 3.72 3.20 1.17 0.16 0.15 0.17 0.27 0.48 0.48 0.60 0.85 0.61 0.69 0.77 0.47 0.51 0.18 0.07 0.13 0.22 1.02 0.81 0.32 0.16 0.21 0.30 0.31 0.49 1.69 1.25 1.33
3.39 3.25 3.54 3.79 3.55 3.60 3.26 3.01 3.24 3.71 4.20 5.41 6.65 4.62 4.65 3.10 2.66 1.60 0.63 0.37 0.33 0.28 0.24 0.44 0.48 0.76 0.85 1.01 1.32 1.30 0.70 0.28 0.12 0.08 0.25 0.38 1.05 0.79 0.69 0.75 0.40 0.30 0.31 0.50 0.84 1.53 2.11
3.84 3.65 3.30 3.40 3.98 4.14 3.99 4.25 4.50 4.77 5.16 5.62 7.05 6.26 7.49 6.46 2.10 0.70 0.74 0.72 0.49 0.24 0.28 0.36 0.59 0.83 0.90 1.08 1.09 1.34 0.70 0.22 0.09 0.10 0.18 0.55 0.73 0.75 1.04 1.05 0.96 0.72 0.49 0.57 1.27 2.37 1.77
3.45 3.61 3.68 3.60 3.68 4.29 4.76 5.23 5.45 5.48 6.10 8.28 8.61 5.19 3.34 4.12 2.19 0.96 0.93 1.12 0.62 0.48 0.55 0.68 1.08 0.65 0.77 1.54 1.06 0.80 0.67 0.38 0.21 0.20 0.23 0.54 0.99 0.93 0.70 0.79 0.72 1.19 1.17 1.18 1.09 0.99 1.63
3.27 3.28 3.49 3.53 3.57 3.70 4.08 5.04 5.61 5.43 6.29 10.89 8.84 3.42 2.01 1.38 1.03 1.62 1.84 1.27 0.58 0.58 0.99 1.05 0.59 0.31 0.54 0.85 0.79 0.79 0.81 0.85 0.78 0.35 0.37 0.53 0.83 0.95 1.53 0.90 0.44 0.96 1.10 0.92 0.63 0.73 0.81
3.27 3.21 3.27 3.46 3.34 3.16 3.32 3.94 5.23 6.64 8.05 11.23 6.80 2.47 2.25 2.35 1.50 1.89 1.75 0.86 0.74 0.83 1.17 0.68 0.47 0.78 0.67 0.38 0.56 0.77 0.62 0.48 0.53 0.47 0.52 0.70 0.83 0.98 1.14 0.56 0.50 0.95 0.87 0.51 0.32 0.27 0.36
2.82 2.87 2.90 2.89 3.09 3.17 3.26 3.51 4.10 5.79 8.27 7.14 4.16 2.50 3.61 3.04 1.50 0.92 0.64 0.63 0.77 0.73 1.06 0.62 0.46 0.78 0.50 0.33 0.58 0.66 0.41 0.24 0.31 0.28 0.40 0.65 0.73 1.40 1.28 0.78 1.53 1.02 0.40 0.32 0.33 0.33 0.28
2.85 2.72 2.90 2.80 2.64 2.85 2.94 2.89 3.19 4.06 5.88 6.22 4.01 2.93 3.26 2.59 1.12 0.68 0.57 0.65 0.80 0.98 1.03 0.93 0.60 0.57 0.74 0.98 1.30 1.09 0.60 0.43 0.23 0.35 0.43 0.44 0.89 1.79 1.55 1.04 0.67 0.27 0.16 0.25 0.34 0.33 0.36
2.63 2.46 2.45 2.97 2.59 2.50 2.72 2.65 2.47 2.74 4.12 6.13 4.65 3.22 3.43 3.11 1.50 0.55 0.71 0.75 0.95 1.10 1.13 0.87 0.65 0.67 0.99 1.66 1.76 1.45 0.76 0.45 0.37 0.29 0.47 0.72 0.99 1.98 1.74 1.68 0.77 0.22 0.15 0.08 0.15 0.47 0.43
2.44 2.46 2.44 2.61 2.87 2.58 2.45 2.36 2.39 2.36 3.34 5.17 4.96 3.56 4.90 4.58 1.79 0.76 0.93 1.00 0.90 1.14 1.42 0.94 0.91 1.02 1.27 1.82 1.89 0.94 0.58 0.45 0.61 0.44 0.34 0.65 1.31 2.04 1.77 2.44 0.86 0.16 0.19 0.24 0.87 1.10 0.72
2.18 2.21 2.45 2.36 2.71 2.59 2.34 2.06 2.20 2.58 3.48 5.05 4.50 3.34 4.40 4.38 2.13 1.04 0.85 0.93 0.90 1.22 1.75 1.43 1.80 1.63 1.97 2.14 1.64 1.17 0.71 0.44 0.42 0.30 0.39 0.58 1.16 1.26 1.50 2.24 1.23 0.36 0.54 0.98 1.07 0.79 0.56
2.17 2.03 2.14 2.29 2.40 2.58 2.34 2.24 2.23 2.69 3.70 5.10 4.86 3.25 3.85 4.80 3.19 1.38 0.82 0.74 0.65 0.77 1.44 1.88 1.57 1.26 1.33 1.64 1.53 1.25 1.01 0.72 0.53 0.85 0.46 0.88 0.78 1.00 1.07 0.89 0.70 0.63 0.91 0.78 0.74 0.81 0.46

GFSGBSN_prec_precacc_270.txt.gz
Total_Precipitation_Accumulation
0.23 0.17 0.14 0.12 0.10 0.08 0.08 0.08 0.08 0.06 0.06 0.06 0.06 0.05 0.05 0.05 0.04 0.03 0.02 0.01 0.01 0.02 0.02 0.02 0.02 0.02 0.01 0.00 0.00 0.00 0.00 0.00 0.00 0.00 0.00 0.00 0.00 0.00 0.00 0.00 0.00 0.00 0.00 0.00 0.00 0.02 0.02
0.63 0.53 0.48 0.43 0.38 0.35 0.32 0.27 0.21 0.13 0.09 0.07 0.07 0.07 0.07 0.07 0.05 0.04 0.03 0.01 0.02 0.01 0.02 0.02 0.02 0.04 0.00 0.00 0.00 0.00 0.00 0.00 0.00 0.00 0.00 0.00 0.00 0.00 0.00 0.00 0.00 0.00 0.00 0.00 0.02 0.01 0.02
0.66 0.60 0.52 0.46 0.42 0.35 0.27 0.21 0.17 0.15 0.11 0.08 0.09 0.06 0.05 0.05 0.04 0.03 0.03 0.01 0.02 0.02 0.02 0.02 0.03 0.03 0.00 0.00 0.00 0.00 0.00 0.00 0.00 0.00 0.00 0.00 0.00 0.00 0.00 0.00 0.00 0.00 0.01 0.01 0.04 0.02 0.01
1.06 0.68 0.48 0.39 0.33 0.31 0.28 0.22 0.19 0.16 0.12 0.09 0.07 0.07 0.06 0.05 0.04 0.03 0.02 0.01 0.01 0.01 0.02 0.02 0.03 0.02 0.00 0.00 0.00 0.00 0.00 0.00 0.00 0.00 0.00 0.00 0.00 0.00 0.00 0.00 0.00 0.00 0.00 0.02 0.16 0.03 0.01
1.60 1.28 0.80 0.49 0.36 0.31 0.27 0.23 0.17 0.12 0.10 0.09 0.07 0.05 0.04 0.03 0.03 0.04 0.03 0.02 0.01 0.01 0.02 0.02 0.03 0.02 0.00 0.00 0.00 0.00 0.00 0.00 0.00 0.00 0.00 0.00 0.00 0.00 0.00 0.00 0.00 0.00 0.00 0.00 0.01 0.01 0.01
1.35 1.25 1.15 0.84 0.55 0.38 0.30 0.24 0.18 0.13 0.11 0.10 0.07 0.05 0.05 0.06 0.06 0.05 0.03 0.01 0.01 0.01 0.01 0.00 0.02 0.01 0.00 0.00 0.00 0.00 0.00 0.01 0.03 0.00 0.00 0.00 0.00 0.00 0.00 0.00 0.00 0.00 0.00 0.00 0.02 0.01 0.00
1.11 1.19 1.03 0.86 0.77 0.63 0.48 0.40 0.32 0.26 0.20 0.14 0.09 0.05 0.03 0.02 0.04 0.05 0.01 0.01 0.00 0.00 0.00 0.00 0.01 0.00 0.00 0.00 0.00 0.00 0.00 0.01 0.01 0.00 0.01 0.02 0.00 0.01 0.00 0.00 0.00 0.00 0.00 0.00 0.00 0.01 0.00
0.91 1.00 1.07 0.86 0.63 0.55 0.56 0.49 0.38 0.33 0.26 0.21 0.15 0.10 0.05 0.05 0.07 0.06 0.01 0.00 0.01 0.05 0.07 0.00 0.00 0.00 0.00 0.00 0.00 0.00 0.00 0.00 0.00 0.01 0.03 0.04 0.03 0.01 0.01 0.00 0.00 0.00 0.01 0.00 0.00 0.00 0.00
1.09 1.02 1.01 1.10 0.88 0.55 0.46 0.47 0.42 0.33 0.30 0.26 0.18 0.13 0.09 0.10 0.10 0.04 0.00 0.00 0.00 0.01 0.06 0.00 0.00 0.00 0.00 0.00 0.00 0.00 0.00 0.00 0.01 0.03 0.03 0.05 0.02 0.00 0.00 0.00 0.01 0.00 0.00 0.00 0.00 0.00 0.01
1.17 1.11 1.03 1.02 1.08 0.92 0.60 0.46 0.37 0.30 0.26 0.23 0.23 0.24 0.23 0.17 0.10 0.00 0.00 0.00 0.00 0.03 0.20 0.04 0.00 0.00 0.00 0.01 0.01 0.00 0.00 0.05 0.07 0.06 0.05 0.06 0.00 0.01 0.04 0.04 0.01 0.00 0.00 0.01 0.01 0.03 0.08
1.34 1.23 1.22 1.08 1.10 1.08 0.83 0.58 0.39 0.28 0.26 0.23 0.22 0.24 0.31 0.31 0.10 0.05 0.04 0.01 0.01 0.16 0.48 0.05 0.00 0.01 0.00 0.02 0.04 0.02 0.00 0.01 0.04 0.04 0.10 0.12 0.01 0.07 0.08 0.03 0.02 0.01 0.01 0.05 0.05 0.06 0.05
1.56 1.43 1.36 1.28 1.07 0.98 0.93 0.71 0.59 0.39 0.31 0.33 0.33 0.34 0.46 0.33 0.22 0.13 0.08 0.06 0.25 0.62 0.47 0.04 0.01 0.01 0.01 0.00 0.00 0.00 0.00 0.02 0.02 0.03 0.03 0.02 0.02 0.05 0.04 0.01 0.04 0.08 0.05 0.11 0.10 0.13 0.15
1.85 1.66 1.54 1.39 1.31 1.07 0.99 0.97 0.75 0.61 0.48 0.46 0.43 0.44 0.53 0.20 0.16 0.15 0.21 0.42 0.89 0.73 0.07 0.03 0.03 0.00 0.01 0.03 0.02 0.02 0.05 0.03 0.04 0.07 0.10 0.08 0.09 0.01 0.01 0.01 0.04 0.11 0.25 0.48 0.52 0.33 0.12
2.56 2.03 1.77 1.54 1.37 1.30 1.16 1.13 1.07 0.95 0.81 0.77 0.75 0.76 0.52 0.25 0.13 0.21 0.46 1.19 1.03 0.13 0.02 0.01 0.00 0.01 0.10 0.20 0.16 0.08 0.08 0.02 0.01 0.02 0.08 0.18 0.21 0.10 0.00 0.01 0.05 0.11 0.31 0.43 0.60 0.28 0.14
3.42 2.65 2.00 1.68 1.46 1.36 1.45 1.34 1.33 1.28 1.18 1.25 1.65 1.24 0.91 0.31 0.29 0.52 1.30 1.99 0.49 0.07 0.11 0.07 0.05 0.11 0.28 0.11 0.35 0.26 0.05 0.02 0.06 0.09 0.27 0.29 0.22 0.07 0.02 0.06 0.18 0.20 0.19 0.15 0.70 0.43 0.43
4.28 4.14 3.09 2.47 1.92 1.67 1.63 1.71 1.67 1.73 1.84 2.15 2.17 1.85 1.07 0.53 0.98 1.90 2.56 1.33 0.16 0.07 0.11 0.22 0.45 0.24 0.36 0.12 0.39 0.18 0.14 0.09 0.06 0.04 0.11 0.31 0.62 0.20 0.06 0.08 0.09 0.16 0.27 0.48 0.94 1.10 0.84
4.33 4.15 4.36 3.56 2.89 2.19 2.10 2.15 2.30 2.36 2.85 3.52 4.10 4.24 1.60 1.09 2.80 4.41 2.86 0.48 0.02 0.03 0.21 0.54 0.48 0.46 0.54 0.43 0.49 0.24 0.31 0.23 0.12 0.07 0.11 0.40 0.91 0.54 0.23 0.20 0.20 0.28 0.42 0.47 0.69 0.76 1.52
4.03 4.11 3.87 3.75 3.52 3.01 2.66 2.61 2.94 3.62 4.77 6.19 6.14 5.18 2.59 1.98 4.21 3.42 1.20 0.16 0.15 0.17 0.27 0.48 0.48 0.60 0.85 0.61 0.69 0.77 0.47 0.51 0.18 0.07 0.13 0.22 1.02 0.81 0.32 0.16 0.21 0.30 0.31 0.49 1.69 1.25 1.33
3.51 3.39 3.60 3.84 3.61 3.62 3.26 3.01 3.30 3.92 4.61 5.76 6.95 4.83 4.88 3.46 2.97 1.66 0.64 0.37 0.33 0.28 0.24 0.44 0.48 0.76 0.85 1.01 1.32 1.30 0.70 0.28 0.12 0.08 0.25 0.38 1.05 0.79 0.69 0.75 0.40 0.30 0.31 0.50 0.84 1.53 2.11
3.90 3.74 3.38 3.44 4.10 4.19 3.99 4.26 4.56 4.94 5.59 6.04 7.26 6.51 7.84 6.98 2.33 0.71 0.74 0.72 0.49 0.24 0.28 0.36 0.59 0.83 0.90 1.08 1.09 1.34 0.70 0.22 0.09 0.10 0.18 0.55 0.73 0.75 1.04 1.05 0.96 0.72 0.49 0.57 1.27 2.37 1.77
3.50 3.67 3.75 3.65 3.76 4.42 4.79 5.23 5.49 5.66 6.60 8.99 9.01 5.39 3.45 4.28 2.35 0.99 0.94 1.12 0.62 0.48 0.55 0.68 1.08 0.65 0.77 1.54 1.06 0.80 0.67 0.38 0.21 0.20 0.23 0.54 0.99 0.93 0.70 0.79 0.72 1.19 1.17 1.18 1.09 0.99 1.63
3.30 3.33 3.53 3.58 3.69 3.84 4.17 5.06 5.65 5.57 6.81 11.88 9.41 3.63 2.04 1.40 1.06 1.64 1.86 1.27 0.58 0.58 1.00 1.06 0.59 0.31 0.54 0.85 0.79 0.79 0.81 0.85 0.78 0.35 0.37 0.53 0.83 0.95 1.53 0.90 0.44 0.96 1.10 0.92 0.63 0.73 0.81
3.30 3.24 3.28 3.51 3.46 3.34 3.46 3.96 5.26 6.77 8.46 12.04 7.53 2.71 2.27 2.37 1.53 1.96 1.81 0.86 0.74 0.83 1.17 0.69 0.52 0.79 0.67 0.38 0.56 0.77 0.62 0.48 0.53 0.47 0.52 0.70 0.83 0.98 1.14 0.56 0.50 0.95 0.87 0.51 0.32 0.27 0.36
2.86 2.92 2.92 2.93 3.18 3.31 3.43 3.60 4.11 5.86 8.50 7.45 4.52 2.80 3.77 3.08 1.55 0.95 0.66 0.64 0.77 0.73 1.07 0.64 0.52 0.79 0.50 0.33 0.58 0.66 0.41 0.24 0.31 0.28 0.40 0.65 0.73 1.40 1.28 0.78 1.53 1.02 0.40 0.32 0.33 0.33 0.28
2.88 2.76 2.94 2.83 2.73 3.03 3.17 3.03 3.23 4.09 6.09 6.44 4.10 3.05 3.44 2.69 1.13 0.71 0.59 0.65 0.81 1.00 1.05 0.94 0.62 0.57 0.74 0.98 1.30 1.09 0.60 0.43 0.23 0.35 0.43 0.44 0.89 1.79 1.55 1.04 0.67 0.27 0.16 0.25 0.34 0.33 0.36
2.64 2.49 2.50 3.02 2.66 2.69 2.92 2.92 2.57 2.81 4.22 6.41 4.78 3.26 3.46 3.15 1.52 0.55 0.72 0.77 0.98 1.13 1.14 0.89 0.66 0.67 0.99 1.66 1.76 1.45 0.76 0.45 0.37 0.29 0.47 0.72 0.99 1.98 1.74 1.68 0.77 0.22 0.15 0.08 0.15 0.47 0.43
2.47 2.49 2.47 2.64 2.91 2.71 2.66 2.56 2.61 2.45 3.42 5.26 5.18 3.62 4.96 4.63 1.81 0.76 0.93 1.01 0.91 1.16 1.45 0.94 0.91 1.02 1.27 1.82 1.90 0.94 0.59 0.45 0.61 0.44 0.34 0.65 1.31 2.04 1.77 2.44 0.86 0.16 0.19 0.24 0.87 1.10 0.72
2.20 2.24 2.47 2.37 2.73 2.66 2.53 2.29 2.39 2.73 3.61 5.10 4.65 3.53 4.48 4.49 2.19 1.06 0.85 0.93 0.90 1.22 1.76 1.43 1.81 1.63 1.97 2.15 1.65 1.18 0.71 0.44 0.42 0.30 0.39 0.58 1.16 1.26 1.50 2.24 1.23 0.36 0.54 0.98 1.07 0.79 0.56
2.18 2.05 2.16 2.30 2.42 2.64 2.48 2.47 2.50 2.84 3.86 5.16 4.90 3.38 3.96 4.85 3.28 1.41 0.83 0.74 0.65 0.77 1.44 1.88 1.57 1.26 1.33 1.64 1.53 1.25 1.01 0.72 0.53 0.85 0.46 0.88 0.78 1.00 1.07 0.89 0.70 0.63 0.91 0.78 0.74 0.81 0.46

GFSGBSN_prec_precacc_273.txt.gz
Total_Precipitation_Accumulation
0.23 0.17 0.14 0.12 0.10 0.08 0.08 0.08 0.08 0.06 0.06 0.06 0.06 0.05 0.05 0.05 0.04 0.03 0.02 0.01 0.01 0.02 0.02 0.02 0.02 0.02 0.01 0.00 0.00 0.00 0.00 0.00 0.00 0.00 0.00 0.00 0.00 0.00 0.00 0.00 0.00 0.00 0.00 0.00 0.00 0.02 0.02
0.63 0.53 0.48 0.43 0.38 0.35 0.32 0.27 0.21 0.13 0.09 0.07 0.07 0.07 0.07 0.07 0.05 0.04 0.03 0.01 0.02 0.01 0.02 0.02 0.02 0.04 0.00 0.00 0.00 0.00 0.00 0.00 0.00 0.00 0.00 0.00 0.00 0.00 0.00 0.00 0.00 0.00 0.00 0.00 0.02 0.01 0.02
0.67 0.60 0.52 0.46 0.42 0.35 0.27 0.21 0.17 0.15 0.11 0.08 0.09 0.06 0.05 0.05 0.04 0.03 0.03 0.01 0.02 0.02 0.02 0.02 0.03 0.03 0.00 0.00 0.00 0.00 0.00 0.00 0.00 0.00 0.00 0.00 0.00 0.00 0.00 0.00 0.00 0.00 0.01 0.01 0.04 0.02 0.01
1.09 0.69 0.48 0.39 0.33 0.31 0.28 0.22 0.19 0.16 0.12 0.09 0.07 0.07 0.06 0.05 0.04 0.03 0.02 0.01 0.01 0.01 0.02 0.02 0.03 0.02 0.00 0.00 0.00 0.00 0.00 0.00 0.00 0.00 0.00 0.00 0.00 0.00 0.00 0.00 0.00 0.00 0.00 0.02 0.16 0.03 0.01
1.63 1.29 0.81 0.49 0.36 0.31 0.27 0.23 0.17 0.12 0.10 0.09 0.07 0.05 0.04 0.03 0.03 0.04 0.03 0.02 0.01 0.01 0.02 0.02 0.03 0.02 0.00 0.00 0.00 0.00 0.00 0.00 0.00 0.00 0.00 0.00 0.00 0.00 0.00 0.00 0.00 0.00 0.00 0.00 0.01 0.01 0.01
1.37 1.28 1.17 0.85 0.55 0.38 0.30 0.24 0.18 0.13 0.11 0.10 0.07 0.05 0.05 0.06 0.06 0.05 0.03 0.01 0.01 0.01 0.01 0.00 0.02 0.01 0.00 0.00 0.00 0.00 0.00 0.01 0.03 0.00 0.00 0.00 0.00 0.00 0.00 0.00 0.00 0.00 0.00 0.00 0.02 0.01 0.00
1.12 1.22 1.06 0.89 0.79 0.63 0.48 0.40 0.32 0.26 0.20 0.14 0.09 0.05 0.03 0.02 0.04 0.05 0.01 0.01 0.00 0.00 0.00 0.00 0.01 0.00 0.00 0.00 0.00 0.00 0.00 0.01 0.01 0.00 0.01 0.02 0.00 0.01 0.00 0.00 0.00 0.00 0.00 0.00 0.00 0.01 0.00
0.91 1.03 1.10 0.89 0.65 0.55 0.56 0.49 0.38 0.33 0.26 0.21 0.15 0.10 0.05 0.05 0.07 0.06 0.01 0.00 0.01 0.05 0.07 0.00 0.00 0.00 0.00 0.00 0.00 0.00 0.00 0.00 0.00 0.01 0.03 0.04 0.03 0.01 0.01 0.00 0.00 0.00 0.01 0.00 0.00 0.00 0.00
1.10 1.03 1.05 1.15 0.94 0.58 0.47 0.47 0.42 0.33 0.30 0.26 0.18 0.13 0.09 0.10 0.10 0.04 0.00 0.00 0.00 0.01 0.06 0.00 0.00 0.00 0.00 0.00 0.00 0.00 0.00 0.00 0.01 0.03 0.03 0.05 0.02 0.00 0.00 0.00 0.01 0.00 0.00 0.00 0.00 0.00 0.01
1.18 1.12 1.04 1.07 1.15 1.01 0.64 0.46 0.37 0.30 0.26 0.23 0.23 0.24 0.23 0.17 0.10 0.00 0.00 0.00 0.00 0.03 0.20 0.04 0.00 0.00 0.00 0.01 0.01 0.00 0.00 0.05 0.07 0.06 0.05 0.06 0.00 0.01 0.04 0.04 0.01 0.00 0.00 0.01 0.01 0.03 0.08
1.39 1.26 1.24 1.11 1.17 1.19 0.99 0.65 0.40 0.28 0.26 0.23 0.22 0.24 0.31 0.31 0.10 0.05 0.04 0.01 0.01 0.16 0.48 0.05 0.00 0.01 0.00 0.02 0.04 0.02 0.00 0.01 0.04 0.04 0.10 0.12 0.01 0.07 0.08 0.03 0.02 0.01 0.01 0.05 0.05 0.06 0.05
1.62 1.48 1.40 1.32 1.12 1.08 1.12 0.95 0.67 0.43 0.32 0.33 0.33 0.34 0.46 0.33 0.22 0.14 0.08 0.06 0.25 0.62 0.47 0.04 0.01 0.01 0.01 0.00 0.00 0.00 0.00 0.02 0.02 0.03 0.03 0.02 0.02 0.05 0.04 0.01 0.04 0.08 0.05 0.11 0.10 0.13 0.15
1.91 1.74 1.60 1.45 1.35 1.14 1.12 1.18 0.92 0.71 0.54 0.48 0.44 0.44 0.53 0.20 0.16 0.15 0.21 0.42 0.90 0.73 0.07 0.03 0.03 0.00 0.01 0.03 0.02 0.02 0.05 0.03 0.04 0.07 0.10 0.08 0.09 0.01 0.01 0.01 0.04 0.11 0.25 0.48 0.52 0.33 0.12
2.64 2.14 1.89 1.61 1.47 1.36 1.27 1.28 1.25 1.10 1.00 0.88 0.79 0.77 0.52 0.25 0.13 0.21 0.47 1.23 1.07 0.13 0.02 0.01 0.00 0.01 0.10 0.20 0.16 0.08 0.08 0.02 0.01 0.02 0.08 0.18 0.21 0.10 0.00 0.01 0.05 0.11 0.31 0.43 0.60 0.28 0.14
3.48 2.75 2.11 1.80 1.56 1.46 1.50 1.41 1.46 1.46 1.36 1.43 1.72 1.26 0.92 0.31 0.30 0.53 1.37 2.10 0.53 0.07 0.11 0.07 0.05 0.11 0.28 0.11 0.35 0.26 0.05 0.02 0.06 0.09 0.27 0.29 0.22 0.07 0.02 0.06 0.18 0.20 0.19 0.15 0.70 0.43 0.43
4.35 4.21 3.17 2.53 2.05 1.78 1.72 1.73 1.75 1.89 2.05 2.29 2.23 1.87 1.08 0.54 1.01 2.00 2.70 1.38 0.16 0.07 0.11 0.22 0.45 0.24 0.36 0.12 0.39 0.18 0.14 0.09 0.06 0.04 0.11 0.31 0.62 0.20 0.06 0.08 0.09 0.16 0.27 0.48 0.94 1.10 0.84
4.39 4.21 4.42 3.60 2.97 2.39 2.22 2.19 2.34 2.50 3.05 3.66 4.22 4.33 1.62 1.11 2.92 4.84 3.05 0.50 0.03 0.03 0.21 0.54 0.48 0.47 0.54 0.43 0.49 0.24 0.31 0.23 0.12 0.07 0.11 0.40 0.91 0.54 0.23 0.20 0.20 0.28 0.42 0.47 0.69 0.76 1.52
4.07 4.18 3.97 3.83 3.55 3.13 2.83 2.66 2.97 3.72 4.95 6.41 6.38 5.30 2.64 2.04 4.55 3.79 1.30 0.16 0.15 0.17 0.27 0.48 0.48 0.60 0.85 0.61 0.69 0.77 0.47 0.51 0.18 0.07 0.13 0.22 1.02 0.81 0.32 0.16 0.21 0.30 0.31 0.49 1.69 1.25 1.33
3.55 3.44 3.70 3.99 3.68 3.72 3.41 3.12 3.33 4.00 4.72 5.94 7.19 4.94 5.05 3.55 3.25 1.83 0.67 0.37 0.33 0.28 0.24 0.44 0.48 0.76 0.85 1.01 1.33 1.30 0.70 0.28 0.12 0.08 0.25 0.38 1.05 0.79 0.70 0.75 0.40 0.30 0.31 0.50 0.84 1.53 2.11
3.92 3.78 3.44 3.61 4.28 4.28 4.18 4.39 4.61 4.98 5.65 6.18 7.40 6.66 8.21 7.41 2.53 0.75 0.76 0.73 0.49 0.24 0.28 0.36 0.59 0.83 0.90 1.08 1.09 1.34 0.70 0.22 0.09 0.10 0.18 0.55 0.73 0.75 1.05 1.05 0.96 0.72 0.49 0.57 1.27 2.37 1.77
3.51 3.69 3.82 3.75 3.94 4.55 4.93 5.39 5.54 5.70 6.67 9.28 9.21 5.54 3.66 4.56 2.53 1.05 0.94 1.12 0.62 0.48 0.55 0.68 1.08 0.65 0.77 1.54 1.06 0.80 0.67 0.38 0.21 0.20 0.23 0.54 0.99 0.93 0.70 0.79 0.72 1.19 1.17 1.18 1.09 0.99 1.63
3.31 3.34 3.59 3.69 3.79 4.00 4.37 5.23 5.69 5.61 6.93 12.16 9.71 3.77 2.10 1.45 1.08 1.67 1.89 1.29 0.58 0.58 1.00 1.06 0.59 0.31 0.54 0.85 0.79 0.79 0.81 0.86 0.79 0.35 0.37 0.53 0.84 0.95 1.53 0.90 0.44 0.96 1.10 0.92 0.63 0.73 0.81
3.31 3.26 3.33 3.63 3.53 3.44 3.64 4.21 5.37 6.81 8.70 12.43 7.94 2.86 2.32 2.44 1.59 2.00 1.86 0.88 0.74 0.83 1.17 0.69 0.52 0.80 0.67 0.38 0.56 0.77 0.62 0.48 0.53 0.47 0.52 0.70 0.83 0.98 1.15 0.56 0.50 0.95 0.87 0.51 0.32 0.27 0.36
2.86 2.92 2.94 3.02 3.27 3.39 3.55 3.90 4.30 5.92 8.67 7.72 4.79 2.99 3.95 3.27 1.66 0.99 0.66 0.64 0.77 0.73 1.07 0.64 0.52 0.85 0.52 0.33 0.58 0.66 0.41 0.24 0.31 0.28 0.40 0.65 0.73 1.41 1.28 0.78 1.53 1.02 0.40 0.32 0.33 0.33 0.28
2.89 2.77 2.95 2.86 2.77 3.07 3.26 3.23 3.59 4.22 6.19 6.76 4.31 3.20 3.69 2.96 1.25 0.73 0.59 0.65 0.82 1.04 1.07 0.94 0.62 0.58 0.75 0.99 1.31 1.10 0.61 0.43 0.23 0.35 0.43 0.44 0.89 1.79 1.55 1.04 0.67 0.27 0.16 0.25 0.34 0.33 0.36
2.66 2.50 2.51 3.06 2.70 2.71 2.99 3.05 2.76 3.04 4.37 6.68 5.05 3.41 3.63 3.35 1.71 0.60 0.73 0.77 1.02 1.26 1.21 0.89 0.66 0.68 1.00 1.67 1.77 1.46 0.77 0.45 0.37 0.29 0.47 0.72 0.99 1.98 1.74 1.68 0.77 0.22 0.15 0.08 0.15 0.47 0.43
2.47 2.50 2.49 2.69 2.97 2.72 2.70 2.67 2.73 2.72 3.60 5.47 5.48 3.86 5.21 4.84 1.95 0.92 1.00 1.03 0.93 1.20 1.47 0.94 0.92 1.04 1.28 1.84 1.91 0.95 0.59 0.45 0.61 0.44 0.34 0.65 1.32 2.05 1.77 2.45 0.86 0.16 0.19 0.24 0.87 1.10 0.72
2.20 2.24 2.49 2.42 2.78 2.68 2.56 2.39 2.47 2.88 3.88 5.25 4.86 3.81 4.71 4.74 2.31 1.17 1.00 0.96 0.90 1.24 1.79 1.45 1.83 1.65 2.00 2.17 1.66 1.18 0.72 0.44 0.42 0.30 0.39 0.58 1.16 1.26 1.50 2.25 1.23 0.36 0.54 0.98 1.07 0.79 0.56
2.19 2.07 2.18 2.34 2.45 2.65 2.50 2.56 2.62 2.94 3.98 5.33 5.05 3.64 4.24 5.04 3.37 1.45 0.89 0.78 0.66 0.78 1.45 1.89 1.58 1.26 1.34 1.65 1.53 1.26 1.01 0.72 0.53 0.85 0.46 0.88 0.78 1.00 1.07 0.89 0.70 0.63 0.91 0.78 0.74 0.81 0.46

GFSGBSN_prec_precacc_276.txt.gz
Total_Precipitation_Accumulation
0.23 0.17 0.14 0.12 0.10 0.08 0.08 0.08 0.08 0.06 0.06 0.06 0.06 0.05 0.05 0.05 0.04 0.03 0.02 0.01 0.01 0.02 0.02 0.02 0.02 0.02 0.01 0.00 0.00 0.00 0.00 0.00 0.00 0.00 0.00 0.00 0.00 0.00 0.00 0.00 0.00 0.00 0.00 0.00 0.00 0.02 0.02
0.64 0.53 0.48 0.43 0.38 0.35 0.32 0.27 0.21 0.13 0.09 0.07 0.07 0.07 0.07 0.07 0.05 0.04 0.03 0.01 0.02 0.01 0.02 0.02 0.02 0.04 0.00 0.00 0.00 0.00 0.00 0.00 0.00 0.00 0.00 0.00 0.00 0.00 0.00 0.00 0.00 0.00 0.00 0.00 0.02 0.01 0.02
0.67 0.60 0.53 0.46 0.42 0.35 0.27 0.21 0.17 0.15 0.11 0.08 0.09 0.06 0.05 0.05 0.04 0.03 0.03 0.01 0.02 0.02 0.02 0.02 0.03 0.03 0.00 0.00 0.00 0.00 0.00 0.00 0.00 0.00 0.00 0.00 0.00 0.00 0.00 0.00 0.00 0.00 0.01 0.01 0.04 0.02 0.01
1.09 0.69 0.48 0.40 0.33 0.31 0.28 0.22 0.19 0.16 0.12 0.09 0.07 0.07 0.06 0.05 0.04 0.03 0.02 0.01 0.01 0.01 0.02 0.02 0.03 0.02 0.00 0.00 0.00 0.00 0.00 0.00 0.00 0.00 0.00 0.00 0.00 0.00 0.00 0.00 0.00 0.00 0.00 0.02 0.16 0.03 0.01
1.63 1.29 0.81 0.50 0.37 0.31 0.27 0.23 0.17 0.12 0.10 0.09 0.07 0.05 0.04 0.03 0.03 0.04 0.03 0.02 0.01 0.01 0.02 0.02 0.03 0.02 0.00 0.00 0.00 0.00 0.00 0.00 0.00 0.00 0.00 0.00 0.00 0.00 0.00 0.00 0.00 0.00 0.00 0.00 0.01 0.01 0.01
1.37 1.29 1.17 0.85 0.56 0.38 0.30 0.24 0.18 0.13 0.11 0.10 0.07 0.05 0.05 0.06 0.06 0.05 0.03 0.01 0.01 0.01 0.01 0.00 0.02 0.01 0.00 0.00 0.00 0.00 0.00 0.01 0.03 0.00 0.00 0.00 0.00 0.00 0.00 0.00 0.00 0.00 0.00 0.00 0.02 0.01 0.00
1.12 1.22 1.06 0.89 0.79 0.64 0.48 0.40 0.32 0.26 0.20 0.14 0.09 0.05 0.03 0.02 0.04 0.05 0.01 0.01 0.00 0.00 0.00 0.00 0.01 0.00 0.00 0.00 0.00 0.00 0.00 0.01 0.01 0.00 0.01 0.02 0.00 0.01 0.00 0.00 0.00 0.00 0.00 0.00 0.00 0.01 0.00
0.91 1.03 1.10 0.90 0.66 0.57 0.57 0.49 0.38 0.33 0.26 0.21 0.15 0.10 0.05 0.05 0.07 0.06 0.01 0.00 0.01 0.05 0.07 0.00 0.00 0.00 0.00 0.00 0.00 0.00 0.00 0.00 0.00 0.01 0.03 0.04 0.03 0.01 0.01 0.00 0.00 0.00 0.01 0.00 0.00 0.00 0.00
1.10 1.03 1.05 1.15 0.95 0.60 0.48 0.48 0.43 0.33 0.30 0.26 0.18 0.13 0.09 0.10 0.10 0.04 0.00 0.00 0.00 0.01 0.06 0.00 0.00 0.00 0.00 0.00 0.00 0.00 0.00 0.00 0.01 0.03 0.03 0.05 0.02 0.00 0.00 0.00 0.01 0.00 0.00 0.00 0.00 0.00 0.01
1.18 1.12 1.04 1.07 1.16 1.03 0.66 0.48 0.38 0.30 0.26 0.23 0.23 0.24 0.23 0.17 0.10 0.00 0.00 0.00 0.00 0.03 0.20 0.04 0.00 0.00 0.00 0.01 0.01 0.00 0.00 0.05 0.07 0.06 0.05 0.06 0.00 0.01 0.04 0.04 0.01 0.00 0.00 0.01 0.01 0.03 0.08
1.39 1.26 1.24 1.11 1.17 1.19 1.01 0.68 0.42 0.29 0.26 0.23 0.22 0.24 0.31 0.31 0.10 0.05 0.04 0.01 0.01 0.17 0.48 0.05 0.00 0.01 0.00 0.02 0.04 0.02 0.00 0.01 0.04 0.04 0.10 0.12 0.01 0.07 0.08 0.03 0.02 0.01 0.01 0.05 0.05 0.06 0.05
1.62 1.48 1.40 1.33 1.12 1.09 1.14 1.00 0.74 0.45 0.33 0.33 0.33 0.34 0.46 0.33 0.22 0.14 0.08 0.06 0.25 0.62 0.47 0.04 0.01 0.01 0.01 0.00 0.00 0.00 0.00 0.02 0.02 0.03 0.03 0.02 0.02 0.05 0.04 0.01 0.04 0.08 0.05 0.11 0.10 0.13 0.15
1.91 1.74 1.60 1.46 1.37 1.15 1.14 1.24 1.06 0.84 0.57 0.48 0.44 0.45 0.53 0.20 0.16 0.15 0.21 0.42 0.90 0.74 0.07 0.03 0.03 0.00 0.01 0.03 0.02 0.02 0.05 0.03 0.04 0.07 0.10 0.08 0.09 0.01 0.01 0.01 0.04 0.11 0.25 0.48 0.52 0.33 0.12
2.65 2.14 1.90 1.65 1.51 1.39 1.30 1.35 1.39 1.27 1.13 0.91 0.81 0.79 0.52 0.26 0.15 0.27 0.50 1.25 1.10 0.13 0.02 0.01 0.00 0.01 0.10 0.20 0.16 0.08 0.08 0.02 0.01 0.02 0.08 0.18 0.21 0.10 0.00 0.01 0.05 0.11 0.31 0.43 0.60 0.28 0.14
3.48 2.76 2.13 1.86 1.66 1.53 1.56 1.53 1.60 1.64 1.54 1.64 1.89 1.42 0.95 0.31 0.32 0.58 1.39 2.15 0.55 0.07 0.11 0.07 0.05 0.11 0.28 0.11 0.35 0.26 0.05 0.02 0.06 0.09 0.27 0.29 0.22 0.07 0.02 0.06 0.18 0.20 0.19 0.15 0.70 0.43 0.44
4.35 4.22 3.19 2.58 2.16 1.88 1.83 1.87 1.91 2.11 2.29 2.66 2.75 2.17 1.24 0.55 1.03 2.04 2.79 1.42 0.16 0.07 0.11 0.22 0.45 0.24 0.36 0.12 0.39 0.18 0.14 0.09 0.06 0.04 0.11 0.31 0.62 0.20 0.06 0.08 0.09 0.16 0.27 0.48 0.94 1.10 0.84
4.41 4.24 4.46 3.66 3.04 2.47 2.31 2.35 2.45 2.72 3.34 4.17 4.88 4.73 1.77 1.18 2.98 4.96 3.24 0.55 0.03 0.03 0.21 0.54 0.48 0.47 0.54 0.43 0.49 0.24 0.31 0.23 0.12 0.07 0.11 0.40 0.91 0.54 0.23 0.20 0.20 0.28 0.42 0.47 0.69 0.76 1.52
4.08 4.20 4.00 3.87 3.60 3.24 2.94 2.85 3.18 3.89 5.29 7.11 7.29 5.89 2.81 2.12 4.80 4.02 1.37 0.17 0.15 0.17 0.27 0.48 0.48 0.60 0.85 0.62 0.70 0.77 0.47 0.51 0.18 0.07 0.13 0.22 1.02 0.81 0.32 0.16 0.21 0.30 0.31 0.49 1.69 1.25 1.33
3.55 3.46 3.75 4.05 3.74 3.80 3.49 3.29 3.58 4.22 5.03 6.68 8.08 5.53 5.49 3.66 3.42 1.90 0.69 0.37 0.33 0.28 0.24 0.44 0.48 0.77 0.86 1.02 1.34 1.31 0.70 0.28 0.12 0.08 0.25 0.38 1.05 0.83 0.73 0.76 0.40 0.30 0.31 0.50 0.84 1.53 2.11
3.94 3.80 3.50 3.68 4.34 4.36 4.29 4.51 4.81 5.31 5.94 6.66 8.13 7.21 8.97 7.83 2.66 0.76 0.77 0.74 0.49 0.24 0.28 0.36 0.59 0.83 0.91 1.09 1.09 1.34 0.73 0.23 0.09 0.10 0.18 0.55 0.73 0.76 1.11 1.07 0.96 0.72 0.49 0.57 1.27 2.38 1.77
3.51 3.70 3.86 3.81 4.04 4.64 5.09 5.64 5.76 5.97 7.05 9.77 9.91 6.09 4.04 4.84 2.67 1.06 0.95 1.12 0.63 0.49 0.55 0.68 1.08 0.65 0.77 1.54 1.06 0.80 0.68 0.39 0.21 0.20 0.23 0.54 0.99 0.94 0.71 0.79 0.72 1.20 1.17 1.18 1.09 0.99 1.63
3.32 3.35 3.60 3.71 3.84 4.10 4.52 5.53 6.03 5.85 7.26 12.89 10.35 4.20 2.30 1.48 1.10 1.68 1.91 1.32 0.59 0.59 1.00 1.06 0.59 0.31 0.54 0.85 0.79 0.79 0.83 0.93 0.79 0.35 0.37 0.53 0.86 0.96 1.54 0.90 0.44 0.96 1.10 0.92 0.63 0.73 0.81
3.31 3.26 3.34 3.64 3.56 3.55 3.79 4.38 5.76 7.02 9.13 13.05 8.56 3.13 2.43 2.51 1.62 2.03 1.91 0.89 0.74 0.83 1.17 0.69 0.52 0.80 0.67 0.38 0.56 0.77 0.62 0.49 0.54 0.47 0.52 0.70 0.84 1.01 1.16 0.56 0.50 0.95 0.87 0.51 0.32 0.27 0.36
2.86 2.92 2.94 3.03 3.29 3.48 3.74 4.06 4.65 6.26 8.94 8.12 5.08 3.22 4.07 3.39 1.76 1.03 0.69 0.65 0.78 0.74 1.07 0.64 0.52 0.85 0.52 0.33 0.58 0.66 0.41 0.24 0.31 0.28 0.40 0.65 0.73 1.44 1.31 0.81 1.53 1.02 0.40 0.32 0.33 0.33 0.28
2.89 2.77 2.96 2.88 2.79 3.12 3.42 3.44 3.88 4.71 6.49 7.06 4.46 3.31 3.83 3.07 1.33 0.76 0.60 0.67 0.87 1.06 1.10 0.94 0.62 0.58 0.75 1.00 1.31 1.10 0.61 0.43 0.23 0.35 0.43 0.44 0.89 1.82 1.56 1.05 0.67 0.27 0.16 0.25 0.34 0.33 0.36
2.66 2.51 2.52 3.07 2.71 2.73 3.05 3.21 3.03 3.44 4.75 7.04 5.31 3.47 3.70 3.43 1.76 0.63 0.76 0.80 1.11 1.47 1.54 1.00 0.70 0.68 1.00 1.68 1.80 1.48 0.77 0.45 0.37 0.30 0.47 0.72 0.99 1.98 1.75 1.68 0.77 0.22 0.15 0.08 0.15 0.47 0.43
2.48 2.51 2.50 2.70 3.00 2.75 2.73 2.74 2.95 2.99 3.91 5.78 5.86 3.96 5.25 4.91 2.00 0.96 1.07 1.06 1.04 1.41 1.77 1.16 0.99 1.07 1.30 1.85 1.92 0.95 0.59 0.45 0.61 0.44 0.34 0.65 1.32 2.05 1.77 2.45 0.86 0.16 0.19 0.24 0.87 1.10 0.72
2.20 2.25 2.49 2.43 2.83 2.74 2.62 2.43 2.61 3.16 4.18 5.62 5.14 3.95 4.75 4.77 2.34 1.26 1.12 1.07 1.00 1.36 1.93 1.63 1.92 1.70 2.02 2.19 1.67 1.19 0.72 0.44 0.42 0.30 0.39 0.58 1.17 1.26 1.50 2.26 1.24 0.36 0.54 0.98 1.07 0.79 0.56
2.19 2.07 2.18 2.34 2.51 2.72 2.59 2.59 2.70 3.20 4.26 5.79 5.31 3.78 4.29 5.09 3.41 1.51 1.07 1.00 0.95 0.90 1.51 1.95 1.63 1.31 1.35 1.65 1.53 1.26 1.01 0.72 0.53 0.85 0.46 0.88 0.78 1.00 1.07 0.89 0.70 0.63 0.91 0.78 0.74 0.81 0.46

GFSGBSN_prec_precacc_279.txt.gz
Total_Precipitation_Accumulation
0.23 0.17 0.14 0.12 0.10 0.08 0.08 0.08 0.08 0.06 0.06 0.06 0.06 0.05 0.05 0.05 0.04 0.03 0.02 0.01 0.01 0.02 0.02 0.02 0.02 0.02 0.01 0.00 0.00 0.00 0.00 0.00 0.00 0.00 0.00 0.00 0.00 0.00 0.00 0.00 0.00 0.00 0.00 0.00 0.00 0.02 0.02
0.64 0.53 0.48 0.43 0.38 0.35 0.32 0.27 0.21 0.13 0.09 0.07 0.07 0.07 0.07 0.07 0.05 0.04 0.03 0.01 0.02 0.01 0.02 0.02 0.02 0.04 0.00 0.00 0.00 0.00 0.00 0.00 0.00 0.00 0.00 0.00 0.00 0.00 0.00 0.00 0.00 0.00 0.00 0.00 0.02 0.01 0.02
0.67 0.60 0.53 0.46 0.42 0.35 0.27 0.21 0.17 0.15 0.11 0.08 0.09 0.06 0.05 0.05 0.04 0.03 0.03 0.01 0.02 0.02 0.02 0.02 0.03 0.03 0.00 0.00 0.00 0.00 0.00 0.00 0.00 0.00 0.00 0.00 0.00 0.00 0.00 0.00 0.00 0.00 0.01 0.01 0.04 0.02 0.01
1.09 0.69 0.48 0.40 0.33 0.31 0.28 0.22 0.19 0.16 0.12 0.09 0.07 0.07 0.06 0.05 0.04 0.03 0.02 0.01 0.01 0.01 0.02 0.02 0.03 0.02 0.00 0.00 0.00 0.00 0.00 0.00 0.00 0.00 0.00 0.00 0.00 0.00 0.00 0.00 0.00 0.00 0.00 0.02 0.16 0.03 0.01
1.63 1.29 0.81 0.50 0.37 0.31 0.27 0.23 0.17 0.12 0.10 0.09 0.07 0.05 0.04 0.03 0.03 0.04 0.03 0.02 0.01 0.01 0.02 0.02 0.03 0.02 0.00 0.00 0.00 0.00 0.00 0.00 0.00 0.00 0.00 0.00 0.00 0.00 0.00 0.00 0.00 0.00 0.00 0.00 0.01 0.01 0.01
1.37 1.29 1.17 0.85 0.56 0.38 0.30 0.24 0.18 0.13 0.11 0.10 0.07 0.05 0.05 0.06 0.06 0.05 0.03 0.01 0.01 0.01 0.01 0.00 0.02 0.01 0.00 0.00 0.00 0.00 0.00 0.01 0.03 0.00 0.00 0.00 0.00 0.00 0.00 0.00 0.00 0.00 0.00 0.00 0.02 0.01 0.00
1.12 1.22 1.06 0.89 0.79 0.64 0.48 0.40 0.32 0.26 0.20 0.14 0.09 0.05 0.03 0.02 0.04 0.05 0.01 0.01 0.00 0.00 0.00 0.00 0.01 0.00 0.00 0.00 0.00 0.00 0.00 0.01 0.01 0.00 0.01 0.02 0.00 0.01 0.00 0.00 0.00 0.00 0.00 0.00 0.00 0.01 0.00
0.91 1.03 1.10 0.90 0.66 0.57 0.57 0.49 0.38 0.33 0.26 0.21 0.15 0.10 0.05 0.05 0.07 0.06 0.01 0.00 0.01 0.05 0.07 0.00 0.00 0.00 0.00 0.00 0.00 0.00 0.00 0.00 0.00 0.01 0.03 0.04 0.03 0.01 0.01 0.00 0.00 0.00 0.01 0.00 0.00 0.00 0.00
1.10 1.03 1.05 1.15 0.95 0.60 0.48 0.49 0.43 0.33 0.30 0.26 0.18 0.13 0.09 0.10 0.10 0.04 0.00 0.00 0.00 0.01 0.06 0.00 0.00 0.00 0.00 0.00 0.00 0.00 0.00 0.00 0.01 0.03 0.03 0.05 0.02 0.00 0.00 0.00 0.01 0.00 0.00 0.00 0.00 0.00 0.01
1.18 1.12 1.04 1.07 1.16 1.03 0.66 0.48 0.38 0.31 0.26 0.23 0.23 0.24 0.23 0.17 0.10 0.00 0.00 0.00 0.00 0.03 0.20 0.04 0.00 0.00 0.00 0.01 0.01 0.00 0.00 0.05 0.07 0.06 0.05 0.06 0.00 0.01 0.04 0.04 0.01 0.00 0.00 0.01 0.01 0.03 0.08
1.39 1.26 1.24 1.11 1.17 1.19 1.01 0.68 0.43 0.29 0.27 0.24 0.22 0.24 0.31 0.31 0.10 0.05 0.04 0.01 0.01 0.17 0.48 0.05 0.00 0.01 0.00 0.02 0.04 0.02 0.00 0.01 0.04 0.04 0.10 0.12 0.01 0.07 0.08 0.03 0.02 0.01 0.01 0.05 0.05 0.06 0.05
1.62 1.48 1.40 1.33 1.12 1.09 1.14 1.00 0.74 0.46 0.34 0.35 0.34 0.34 0.46 0.33 0.22 0.14 0.08 0.06 0.26 0.63 0.47 0.04 0.01 0.01 0.01 0.00 0.00 0.00 0.00 0.02 0.02 0.03 0.03 0.02 0.02 0.05 0.04 0.01 0.04 0.08 0.05 0.11 0.10 0.13 0.15
1.91 1.74 1.60 1.46 1.37 1.15 1.14 1.24 1.06 0.85 0.61 0.51 0.46 0.47 0.55 0.21 0.16 0.15 0.24 0.46 0.94 0.74 0.07 0.03 0.03 0.00 0.01 0.03 0.02 0.02 0.05 0.03 0.04 0.07 0.10 0.08 0.09 0.01 0.01 0.01 0.04 0.11 0.25 0.48 0.52 0.33 0.12
2.65 2.14 1.90 1.65 1.51 1.39 1.30 1.35 1.39 1.27 1.17 0.98 0.88 0.86 0.57 0.27 0.15 0.28 0.57 1.38 1.22 0.13 0.02 0.01 0.00 0.01 0.10 0.20 0.16 0.08 0.08 0.02 0.01 0.02 0.08 0.18 0.21 0.10 0.00 0.01 0.05 0.11 0.31 0.43 0.60 0.28 0.14
3.48 2.76 2.13 1.86 1.66 1.53 1.56 1.53 1.60 1.64 1.57 1.72 2.04 1.62 1.06 0.33 0.32 0.61 1.42 2.25 0.60 0.07 0.11 0.07 0.05 0.11 0.28 0.11 0.35 0.26 0.05 0.02 0.06 0.09 0.27 0.29 0.22 0.07 0.02 0.06 0.18 0.20 0.19 0.15 0.70 0.43 0.44
4.35 4.22 3.19 2.58 2.16 1.88 1.83 1.87 1.93 2.12 2.33 2.79 3.06 2.60 1.55 0.59 1.06 2.10 2.91 1.51 0.16 0.07 0.11 0.22 0.45 0.24 0.36 0.12 0.39 0.18 0.14 0.09 0.06 0.04 0.11 0.31 0.62 0.20 0.06 0.08 0.09 0.16 0.27 0.48 0.94 1.10 0.84
4.41 4.24 4.46 3.66 3.04 2.47 2.32 2.36 2.49 2.78 3.43 4.34 5.31 5.46 2.12 1.27 3.10 5.12 3.51 0.67 0.03 0.03 0.21 0.54 0.48 0.47 0.54 0.43 0.49 0.24 0.31 0.23 0.12 0.07 0.11 0.40 0.91 0.54 0.23 0.20 0.20 0.28 0.42 0.47 0.69 0.76 1.52
4.08 4.20 4.00 3.87 3.61 3.24 2.95 2.87 3.20 3.93 5.43 7.42 7.82 6.63 3.18 2.26 5.27 4.47 1.66 0.20 0.15 0.17 0.27 0.48 0.48 0.60 0.85 0.62 0.70 0.77 0.47 0.51 0.18 0.07 0.13 0.22 1.02 0.81 0.32 0.16 0.21 0.30 0.31 0.49 1.69 1.25 1.33
3.55 3.46 3.75 4.05 3.74 3.80 3.50 3.32 3.62 4.26 5.19 7.08 8.77 6.19 6.06 3.92 4.06 2.41 0.86 0.38 0.33 0.28 0.24 0.44 0.48 0.77 0.86 1.02 1.34 1.31 0.70 0.28 0.12 0.08 0.25 0.38 1.05 0.84 0.74 0.76 0.40 0.30 0.31 0.50 0.84 1.53 2.11
3.94 3.80 3.50 3.68 4.34 4.36 4.30 4.55 4.89 5.40 6.06 7.17 8.88 7.98 9.86 8.48 3.11 1.08 0.87 0.76 0.49 0.24 0.28 0.36 0.59 0.83 0.91 1.10 1.10 1.35 0.76 0.23 0.09 0.10 0.18 0.55 0.73 0.77 1.13 1.09 0.96 0.72 0.49 0.57 1.27 2.38 1.77
3.52 3.70 3.86 3.81 4.04 4.65 5.10 5.66 5.83 6.11 7.22 10.36 10.75 6.94 4.72 5.56 3.15 1.45 1.03 1.15 0.63 0.49 0.55 0.68 1.08 0.65 0.77 1.55 1.10 0.88 0.72 0.40 0.21 0.20 0.23 0.54 0.99 0.94 0.71 0.81 0.73 1.20 1.17 1.18 1.09 1.00 1.63
3.32 3.35 3.60 3.71 3.84 4.11 4.52 5.55 6.09 6.01 7.66 13.66 11.13 4.93 2.81 1.76 1.25 1.85 2.07 1.40 0.60 0.59 1.00 1.06 0.59 0.31 0.54 0.85 0.80 0.83 0.91 0.94 0.79 0.35 0.37 0.53 0.86 0.96 1.55 0.90 0.44 0.97 1.10 0.93 0.63 0.73 0.81
3.31 3.26 3.34 3.64 3.56 3.55 3.80 4.40 5.80 7.16 9.65 13.85 9.32 3.72 2.78 2.77 1.78 2.17 2.05 0.97 0.75 0.84 1.17 0.69 0.52 0.80 0.67 0.38 0.56 0.77 0.63 0.51 0.56 0.47 0.52 0.70 0.84 1.02 1.19 0.58 0.51 0.96 0.87 0.51 0.33 0.27 0.36
2.87 2.92 2.95 3.04 3.30 3.48 3.75 4.11 4.69 6.39 9.34 8.84 5.69 3.86 4.44 3.80 2.03 1.26 0.77 0.68 0.79 0.74 1.07 0.64 0.52 0.86 0.53 0.33 0.58 0.66 0.41 0.24 0.33 0.28 0.41 0.65 0.74 1.46 1.31 0.84 1.57 1.02 0.40 0.32 0.33 0.33 0.28
2.90 2.78 2.96 2.88 2.80 3.12 3.43 3.49 3.96 4.85 6.81 7.57 5.08 3.86 4.35 3.34 1.65 0.90 0.66 0.71 0.90 1.08 1.11 0.95 0.62 0.58 0.76 1.00 1.31 1.10 0.61 0.43 0.24 0.38 0.44 0.45 0.91 1.84 1.57 1.05 0.67 0.27 0.16 0.25 0.34 0.33 0.36
2.66 2.51 2.52 3.08 2.71 2.73 3.06 3.23 3.09 3.58 4.98 7.37 5.69 4.11 4.21 3.72 1.94 0.74 0.85 0.92 1.18 1.49 1.59 1.09 0.75 0.70 1.01 1.68 1.80 1.48 0.77 0.45 0.38 0.30 0.47 0.72 0.99 1.98 1.75 1.68 0.77 0.22 0.15 0.08 0.15 0.47 0.43
2.48 2.51 2.50 2.71 3.00 2.75 2.74 2.77 2.98 3.06 4.11 6.07 6.10 4.44 5.94 5.27 2.13 1.03 1.17 1.19 1.11 1.43 1.83 1.26 1.11 1.12 1.35 1.87 1.93 0.95 0.59 0.45 0.61 0.44 0.34 0.65 1.32 2.05 1.77 2.45 0.86 0.16 0.19 0.24 0.87 1.10 0.72
2.20 2.25 2.49 2.44 2.83 2.74 2.62 2.44 2.63 3.19 4.30 5.88 5.30 4.29 5.24 5.11 2.48 1.38 1.27 1.17 1.05 1.40 2.04 1.75 2.07 1.85 2.10 2.21 1.68 1.19 0.72 0.44 0.42 0.30 0.39 0.58 1.17 1.26 1.50 2.26 1.24 0.36 0.54 0.98 1.07 0.79 0.56
2.19 2.07 2.18 2.34 2.51 2.72 2.60 2.63 2.75 3.23 4.35 6.02 5.48 3.97 4.60 5.29 3.57 1.59 1.21 1.17 1.06 0.93 1.56 2.03 1.71 1.42 1.39 1.67 1.53 1.26 1.01 0.72 0.53 0.85 0.46 0.88 0.78 1.00 1.07 0.89 0.70 0.63 0.91 0.78 0.74 0.81 0.46